Regional Weather Roundup
Issued by NWS

Home | Current Version | Previous Version | Text Only | Print | Product List | Glossary On
Versions: 1 2 3 4 5 6 7 8 9 10 11 12 13 14 15 16 17 18 19 20 21 22 23 24 25 26 27 28 29 30 31 32 33 34 35 36 37 38 39 40 41 42 43 44 45 46 47 48 49
000
ASUS45 KBOU 172107
RWRCO

WEATHER ROUNDUP FOR COLORADO
NATIONAL WEATHER SERVICE DENVER/BOULDER CO
300 PM MDT WED SEP 17 2014

NOTE: "FAIR" INDICATES FEW OR NO CLOUDS BELOW 12000 FEET WITH NO
SIGNIFICANT WEATHER AND/OR OBSTRUCTIONS TO VISIBILITY.

COZ001>005-013-030-031-172200-
...NORTHWEST COLORADO...

CITY           SKY/WX    TMP DP  RH WIND       PRES   REMARKS
CRAIG          MOSUNNY   85  36  17 W6        30.10F
HAYDEN         SUNNY     81  28  15 NE3       30.13F
MEEKER         MOSUNNY   83  39  21 NE15G22   30.12F
MOUNT WERNER   NOT AVBL
STEAMBOAT SPGS SUNNY     78  32  18 NE6       30.16F
WALDEN         PTSUNNY   70  32  24 E15       30.27F
$$

COZ006>008-011-172200-
...WEST CENTRAL VALLEYS...

CITY           SKY/WX    TMP DP  RH WIND       PRES   REMARKS
GRAND JUNCTION SUNNY     86  42  21 W7        30.00F
MONTROSE       SUNNY     85  39  19 N9        30.07F
EAGLE          MOSUNNY   81  34  18 SW3       30.15F
RIFLE          SUNNY     85  38  18 CALM      30.05F
DELTA          SUNNY     90  34  14 CALM      30.02F
NUCLA          SUNNY     84  39  20 N7        30.10F
$$

COZ017>023-064>068-172200-
...SOUTHWEST COLORADO...

CITY           SKY/WX    TMP DP  RH WIND       PRES   REMARKS
DURANGO        PTSUNNY   74  47  38 SW7       30.15F
CORTEZ         SUNNY     82  51  34 S10       30.11F
PAGOSA SPRINGS PTSUNNY   74  40  29 E8        30.22F
TELLURIDE      NOT AVBL
WOLF CREEK PAS LGT RAIN  45  34  65 E13G18    30.54S
$$

COZ009-010-012-014-032>034-037-058>063-172200-
...CENTRAL COLORADO...

CITY           SKY/WX    TMP DP  RH WIND       PRES   REMARKS
ASPEN          SUNNY     78  31  17 W5G20     30.20F
BUENA VISTA    PTSUNNY   78  21  12 S6        30.21F
COPPER MTN     MOSUNNY   59  27  29 W12       30.55F
BERTHOUD PASS  PTSUNNY   50  48  93 N5        30.60F
COTTONWOOD PAS CLOUDY    70  19  14 CALM      30.37F
GUNNISON       MOSUNNY   77  25  14 SE5       30.22F
KREMMLING      SUNNY     79  28  15 SW3       30.21F
LEADVILLE      MOSUNNY   69  26  20 NW15      30.36F
MONARCH PASS   LGT RAIN  50  32  50 N18G35    30.65S
SALIDA         MOSUNNY   81  28  14 SW12      30.25F
SUNLIGHT       MOSUNNY   63  36  36 CALM      30.48F
WILKERSON PASS NOT AVBL
$$

COZ069>075-172200-
...SAN LUIS VALLEY/SANGRE DE CRISTO MOUNTAINS...

CITY           SKY/WX    TMP DP  RH WIND       PRES   REMARKS
ALAMOSA        MOSUNNY   77  36  22 S9        30.19F
LA VETA PASS   NOT AVBL
SAGUACHE       MOSUNNY   73  37  27 SE16      30.24F
$$

COZ035-036-038>040-172200-
...NORTHERN COLORADO FRONT RANGE...

CITY           SKY/WX    TMP DP  RH WIND       PRES   REMARKS
DENVER INTL AP MOSUNNY   89  31  12 CALM      30.03F
DMNS CITY PARK   N/A     88  33  13 S5        30.01F
AURORA         PTSUNNY   86  32  14 VRB1      30.05F
FRONT RANGE AP PTSUNNY   88  34  14 E5        30.05F
ERIE MUNI ARPT SUNNY     89  31  12 S3        30.01S
BOULDER MUN AP SUNNY     88  37  16 E3        30.01F
CENTENNIAL     MOSUNNY   87  32  14 N8        30.06F
BROOMFIELD     PTSUNNY   86  32  14 NE6       30.05F
FORT COLLINS   SUNNY     90  41  18 S8        29.98F
LONGMONT       SUNNY     92  37  15 E6        30.01F
$$

COZ041-046-047-076>085-087-088-172200-
...PIKES PEAK/PALMER DIVIDE AND SOUTHERN FOOTHILLS...

CITY           SKY/WX    TMP DP  RH WIND       PRES   REMARKS
COLO. SPRINGS  PTSUNNY   83  38  20 E25G32    30.10F THUNDER
A. F. ACADEMY  MOSUNNY   80  34  19 VRB5      30.12F
ELLICOTT       NOT AVBL
FALCON         PTSUNNY   78  37  23 SE10      30.17F
FORT CARSON    PTSUNNY   82  41  23 SW18      30.07F
LIMON          MOSUNNY   83  39  21 SW20G25   30.05S
MONUMENT HILL  MOSUNNY   79  30  17 N3        30.16F
TRINIDAD       PTSUNNY   85  37  18 E6        30.06F
$$

COZ042>045-048>051-090-091-172200-
...NORTHEAST COLORADO...

CITY           SKY/WX    TMP DP  RH WIND       PRES   REMARKS
GREELEY ARPT   SUNNY     90  37  15 SW5       29.99F
AKRON          SUNNY     88  41  19 NW7G21    29.99F
BURLINGTON     PTSUNNY   86  40  19 S13       29.96F
WRAY           SUNNY     92  45  19 CALM      29.93F
STERLING       SUNNY     91  52  25 NE7       29.93F
HOLYOKE        SUNNY     90  45  20 CALM      29.93F
FORT MORGAN    SUNNY     91  36  14 S8        29.97F
$$

COZ086-089-092>099-172200-
...SOUTHEAST COLORADO...

CITY           SKY/WX    TMP DP  RH WIND       PRES   REMARKS
PUEBLO         PTSUNNY   91  36  14 SE8G18    29.97F
LA JUNTA       PTSUNNY   91  36  14 SE6       29.95F
LAMAR          PTSUNNY   94  40  15 SW9       29.90F
SPRINGFIELD      N/A     87  45  23 S10       29.98F
$$


USA.gov is the U.S. government's official web portal to all federal, state and local government web resources and services.